Regional Weather Roundup
Issued by NWS

Home | Current Version | Previous Version | Text Only | Print | Product List | Glossary On
Versions: 1 2 3 4 5 6 7 8 9 10 11 12 13 14 15 16 17 18 19 20 21 22 23 24 25 26 27 28 29 30 31 32 33 34 35 36 37 38 39 40 41 42 43 44 45 46 47 48 49 50
000
ASUS43 KOAX 041810
RWRNE

WEATHER ROUNDUP FOR NEBRASKA
NATIONAL WEATHER SERVICE OMAHA NE
100 PM CDT MON MAY 04 2015

NOTES: SATELLITE DATA IS BEING USED TO AUGMENT CLOUD COVER ABOVE
       12000 FEET.
       "FAIR" INDICATES FEW OR NO CLOUDS BELOW 12,000 FEET WITH NO
       SIGNIFICANT WEATHER AND/OR OBSTRUCTIONS TO VISIBILITY.

  * THESE STATIONS DO NOT REPORT WEATHER SUCH AS RAIN...SNOW OR FOG.

NEZ001>004-019>022-054>056-041900-
NEBRASKA PANHANDLE

CITY           SKY/WX    TMP DP  RH WIND       PRES   REMARKS
SCOTTSBLUFF    CLOUDY    53  35  50 E15       30.17S
6HR MIN TEMP:  48; 6HR MAX TEMP:  54; 6HR PCP:  0.05;

ALLIANCE       LGT RAIN  53  32  44 E13       30.17F
6HR MIN TEMP:  47; 6HR MAX TEMP:  54; 6HR PCP: TRACE;

CHADRON        CLOUDY    51  37  58 E9        30.20S
6HR MIN TEMP:  46; 6HR MAX TEMP:  51; 6HR PCP:  0.04;

KIMBALL        LGT RAIN  49  43  80 SE3       30.15F
SIDNEY         CLOUDY    57  39  51 SE9       30.16F
6HR MIN TEMP:  48; 6HR MAX TEMP:  57;

$$

NEZ057>060-069>072-079>082-041900-
SOUTHWEST NEBRASKA

CITY           SKY/WX    TMP DP  RH WIND       PRES   REMARKS
NORTH PLATTE   CLOUDY    60  32  34 E13       30.13S
6HR MIN TEMP:  51; 6HR MAX TEMP:  60;

IMPERIAL       LGT RAIN  55  42  61 E8        30.13S
6HR MIN TEMP:  50; 6HR MAX TEMP:  57; 6HR PCP: TRACE;

LEXINGTON      LGT RAIN  55  43  63 NE12      30.13R
MCCOOK         CLOUDY    57  43  59 NE12      30.12R
6HR MIN TEMP:  55; 6HR MAX TEMP:  59;

OGALLALA       CLOUDY    58  34  40 E13       30.14F
$$

NEZ005>010-023>029-035>040-094-041900-
NORTH CENTRAL NEBRASKA

CITY           SKY/WX    TMP DP  RH WIND       PRES   REMARKS
VALENTINE      CLOUDY    62  24  23 E14       30.19F
6HR MIN TEMP:  46; 6HR MAX TEMP:  62;

AINSWORTH      CLOUDY    64  24  21 NE15G25   30.18S
BROKEN BOW     CLOUDY    63  29  27 E16       30.13R
6HR MIN TEMP:  54; 6HR MAX TEMP:  64;

O`NEILL        PTSUNNY   64  30  28 E15G23    30.17S
ORD            CLOUDY    64  28  25 NE16G22   30.12S
6HR MIN TEMP:  55; 6HR MAX TEMP:  66;

THEDFORD       CLOUDY    65  28  24 NE22      30.16F
$$

NEZ041-046>049-061>064-073>077-083>087-041900-
SOUTH CENTRAL NEBRASKA

CITY           SKY/WX    TMP DP  RH WIND       PRES   REMARKS
GRAND ISLAND   LGT RAIN  52  49  89 NE14G22   30.11F
6HR MIN TEMP:  50; 6HR MAX TEMP:  59; 6HR PCP:  0.78;

AURORA         DRIZZLE   58  47  68 NE12      30.10F
HASTINGS       CLOUDY    56  48  74 NE15      30.09R
6HR MIN TEMP:  54; 6HR MAX TEMP:  58; 6HR PCP:  0.01;

HEBRON         PTSUNNY   67  55  67 NE10      30.04S
HOLDREGE       RAIN      57  44  59 E12       30.10R
KEARNEY *      CLOUDY    57  43  58 NE21G28   30.11R
YORK           LGT RAIN  55  52  88 NE9       30.11R
$$

NEZ011>018-030>034-042>045-041900-
NORTHEAST NEBRASKA

CITY           SKY/WX    TMP DP  RH WIND       PRES   REMARKS
NORFOLK        LGT RAIN  65  40  39 NE14      30.13R
6HR MIN TEMP:  55; 6HR MAX TEMP:  65; 6HR PCP: TRACE;

ALBION         CLOUDY    63  38  39 NE13G18   30.13R
BLAIR          LGT RAIN  63  50  63 NE8       30.09R
COLUMBUS *     CLOUDY    59  43  55 NE12      30.13S
FREMONT        CLOUDY    65  48  55 NE15      30.10F
TEKAMAH        CLOUDY    69  46  43 E12       30.11R
6HR MIN TEMP:  56; 6HR MAX TEMP:  69;

WAYNE          CLOUDY    67  38  34 E14       30.14R
$$

NEZ050>053-065>068-078-088>093-041900-
SOUTHEAST NEBRASKA

CITY           SKY/WX    TMP DP  RH WIND       PRES   REMARKS
LINCOLN        LGT RAIN  62  53  72 NE12      30.09F
6HR MIN TEMP:  55; 6HR MAX TEMP:  63; 6HR PCP:  0.01;

OMAHA EPPLEY   LGT RAIN  65  56  72 NE7       30.08R
6HR MIN TEMP:  58; 6HR MAX TEMP:  67; 6HR PCP: TRACE;

BEATRICE       CLOUDY    66  58  75 E8        30.05F
FALLS CITY     PTSUNNY   74  62  66 E12       30.03F
6HR MIN TEMP:  61; 6HR MAX TEMP:  74; 6HR PCP: TRACE;

NEBRASKA CITY  CLOUDY    63  60  88 NE9       30.08R
PLATTSMOUTH    CLOUDY    63  55  77 NE15      30.05S
$$

NEZ044-045-051>053-067-041900-
OMAHA AREA

CITY           SKY/WX    TMP DP  RH WIND       PRES   REMARKS
OMAHA EPPLEY   LGT RAIN  65  56  72 NE7       30.08R
6HR MIN TEMP:  58; 6HR MAX TEMP:  67; 6HR PCP: TRACE;

BLAIR          LGT RAIN  63  50  63 NE8       30.09R
FREMONT        CLOUDY    65  48  55 NE15      30.10F
MILLARD        LGT RAIN  65  54  69 NE5       30.05F
OFFUTT AFB     LGT RAIN  64  57  77 VRB6      30.05S
PLATTSMOUTH    CLOUDY    63  55  77 NE15      30.05S
$$


USA.gov is the U.S. government's official web portal to all federal, state and local government web resources and services.